Tracking 29799 objects as of 10-Oct-2024
HD Live streaming from Space Station
objects crossing your sky now

STARLINK-4300

Track STARLINK-4300 now!
10-day predictions
STARLINK-4300 is classified as:


NORAD ID: 53173
Int'l Code: 2022-083AT
Perigee: 545.8 km
Apogee: 548.1 km
Inclination: 53.2 °
Period: 95.4 minutes
Semi major axis: 6917 km
RCS: Unknown
Launch date: July 17, 2022
Source: United States (US)
Launch site: AIR FORCE EASTERN TEST RANGE (AFETR)
Your satellite tracking list
Your tracking list is empty




NASA's NSSDC Master Catalog

Two Line Element Set (TLE):
1 53173U 22083AT  24283.19117507 -.00000815  00000-0 -33100-4 0  9991
2 53173  53.2173 297.7605 0001654 113.3079 246.8087 15.08826619124365
Source of the keplerian elements: AFSPC